Regional Weather Roundup
Issued by NWS Nashville, TN

Home | Current Version | Previous Version | Text Only | Print | Product List | Glossary On
Versions: 1 2 3 4 5 6 7 8 9 10 11 12 13 14 15 16 17 18 19 20 21 22 23 24 25 26 27
000
ASUS44 KOHX 220710
RWROHX
MIDDLE TENNESSEE HOURLY WEATHER ROUNDUP
NATIONAL WEATHER SERVICE NASHVILLE TN
200 AM CDT SAT JUL 22 2017

NOTE: "FAIR" INDICATES FEW OR NO CLOUDS BELOW 12,000 FEET WITH
NO SIGNIFICANT WEATHER AND/OR OBSTRUCTIONS TO VISIBILITY.

* THESE REPORTS ARE NOT UNDER NWS QUALITY CONTROL AND MAY NOT
  REPORT WEATHER SUCH AS PRECIPITATION AND FOG.


TNZ005>011-023>034-057-059-062>066-078-080-220800
...NORTHERN MIDDLE TENNESSEE...

CITY           SKY/WX    TMP DP  RH WIND       PRES   REMARKS
CLARKSVILLE    CLEAR     79  75  87 CALM      29.95F
CROSSVILLE     CLEAR     71  70  96 CALM      30.06F
GALLATIN       CLEAR     77  75  94 CALM      29.98F
DICKSON        CLEAR     77  74  90 CALM      29.98F
LEBANON        CLEAR     76  73  90 CALM      29.95F
NASHVILLE      CLEAR     79  74  84 S3        29.96F
PORTLAND         N/A     79  75  89 S5        29.96F
SMYRNA         CLEAR     76  74  93 CALM      29.97F
SPARTA           N/A     72  72 100 CALM      29.99F FOG
WEST NASHVILLE CLEAR     79  75  89 CALM      29.94F
$$
TNZ056-058-060-061-075>077-079-093>097-220800
...SOUTHERN MIDDLE TENNESSEE...

CITY           SKY/WX    TMP DP  RH WIND       PRES   REMARKS
COLUMBIA       PTCLDY    75  75 100 CALM      29.96S
FAYETTEVILLE   CLEAR     77  73  88 CALM      29.98F
MCMINNVILLE    CLEAR     73  73 100 CALM      30.00F
MURFREESBORO   CLEAR     79  73  81 CALM      29.97F
PULASKI        CLEAR     72  72 100 CALM      29.97F
SHELBYVILLE    CLEAR     73  73 100 CALM      29.99S FOG
TULLAHOMA      CLEAR     73  70  88 CALM      30.01F
WINCHESTER     CLEAR     73  72  94 CALM      30.00F
$$


...KEY TO REMARKS...
VSB - VISIBILITY IN MILES
WCI - WIND CHILL INDEX
HX  - HEAT INDEX





USA.gov is the U.S. government's official web portal to all federal, state and local government web resources and services.